Weather in Shchetinskoe

Russia / Vologda Oblast     58°49′04″N   38°18′58″E
temp.,
°C
wind,
m/s
gust,
m/s
humid.,
%
clouds,
%
prec.,
mm/h
press.,
hPa
HPBL,
m
14 may, fri
fri1400:00+7sse61010097 0.4 1015101
03:00+6sse58100100 0.4 101670
06:00+6s579987 0.0 101674
09:00+6sse469783 0.0 1018104
12:00+6se569483 0.0 1018154
15:00+9se458013 0.0 1017100
18:00+12ese33675 0.0 101541
21:00+10ese558385 0.0 101534
15 may, sat
sat1500:00+9ese5699100 0.0 101343
03:00+8ese4410062 0.3 101329
06:00+8ese45100100 0.0 101242
09:00+8se5799100 0.3 101169
12:00+9se4798100 0.6 101089
15:00+9se5799100 5.4 100954
18:00+9se5710091 5.4 100757
21:00+8se57100100 12.4 100650
16 may, sun
sun1600:00+8s5610087 1.2 100761
03:00+7sse569984 1.4 100751
06:00+7sse6910094 0.0 100888
09:00+7sse589993 0.1 1009110
12:00+8ssw479895 0.1 100989
15:00+9s459576 0.1 1009121
18:00+9ssw359679 0.3 101071
21:00+9sw229979 0.4 101012
17 may, mon
mon1700:00+8ssw3310081 0.1 101220
03:00+7s3310088 0.1 101320
06:00+7sse2210094 0.1 101421
09:00+7sse349991 0.1 101662
12:00+8se3496100 0.1 101694
15:00+9se3396100 0.1 101562
18:00+14ese337372 0.0 101432
21:00+14e55878 0.0 101333
18 may, tue
tue1800:00+11e6894100 0.3 101252
03:00+11ese81295100 0.3 101179
06:00+11ese71096100 0.0 101067
09:00+11se61094100 0.0 101082
12:00+10sse61093100 0.0 1010107
15:00+10se459693 3.0 101071
18:00+9se2398100 2.2 100846
21:00+12e4493100 2.8 100725